| time (UTC) | temp F | wind direction | speed knots | gust knots | rain 1hr in | rain 24hr in | rain mn in | humidity % | barometer mb |
| 20260504082002 | 48 | 185 | 3.5 | 8.7 | 0.00 | 0.00 | 0.00 | 59 | 1017.5 |
| 20260504081002 | 47 | 172 | 4.3 | 6.1 | 0.00 | 0.00 | 0.00 | 61 | 1017.5 |
| 20260504080503 | 47 | 172 | 4.3 | 6.1 | 0.00 | 0.00 | 0.00 | 61 | 1017.6 |
| 20260504050503 | 49 | 183 | 6.1 | 7.8 | 0.00 | 0.00 | 0.00 | 55 | 1018.0 |
| 20260504050004 | 49 | 219 | 4.3 | 7.8 | 0.00 | 0.00 | 0.00 | 55 | 1018.0 |
| 20260504045003 | 48 | 221 | 3.5 | 7.8 | 0.00 | 0.00 | 0.00 | 54 | 1017.9 |
| 20260504044504 | 48 | 189 | 5.2 | 7.8 | 0.00 | 0.00 | 0.00 | 55 | 1017.9 |
| 20260504044003 | 48 | 196 | 3.5 | 7.8 | 0.00 | 0.00 | 0.00 | 55 | 1017.9 |
| 20260504043502 | 47 | 184 | 5.2 | 7.8 | 0.00 | 0.00 | 0.00 | 56 | 1017.8 |
| 20260504043005 | 47 | 202 | 3.5 | 7.8 | 0.00 | 0.00 | 0.00 | 57 | 1017.7 |
| 20260504042503 | 47 | 188 | 5.2 | 7.8 | 0.00 | 0.00 | 0.00 | 56 | 1017.6 |
| 20260504042003 | 47 | 191 | 4.3 | 10.4 | 0.00 | 0.00 | 0.00 | 57 | 1017.8 |
| 20260504041003 | 46 | 194 | 4.3 | 10.4 | 0.00 | 0.00 | 0.00 | 61 | 1017.7 |
| 20260504040502 | 45 | 197 | 5.2 | 6.1 | 0.00 | 0.00 | 0.00 | 63 | 1018.0 |
| 20260504040011 | 44 | 181 | 3.5 | 7.8 | 0.00 | 0.00 | 0.00 | 65 | 1017.8 |
| 20260504035503 | 42 | 200 | 3.5 | 7.8 | 0.00 | 0.00 | 0.00 | 69 | 1017.9 |
| 20260504034503 | 36 | 219 | 2.6 | 4.3 | 0.00 | 0.00 | 0.00 | 84 | 1018.0 |
| 20260504034002 | 36 | 220 | 0.9 | 4.3 | 0.00 | 0.00 | 0.00 | 84 | 1017.9 |
| 20260504033004 | 35 | 221 | 0.9 | 4.3 | 0.00 | 0.00 | 0.00 | 83 | 1018.0 |
| 20260504032503 | 35 | 221 | 0.9 | 4.3 | 0.00 | 0.00 | 0.00 | 83 | 1017.9 |
| 20260504032002 | 36 | 220 | 0.9 | 1.7 | 0.00 | 0.00 | 0.00 | 83 | 1017.9 |
| 20260504031503 | 35 | 220 | 0.9 | 2.6 | 0.00 | 0.00 | 0.00 | 84 | 1018.1 |
| 20260504031003 | 35 | 221 | 1.7 | 2.6 | 0.00 | 0.00 | 0.00 | 85 | 1018.0 |
| 20260504030504 | 35 | 220 | 1.7 | 2.6 | 0.00 | 0.00 | 0.00 | 84 | 1018.0 |
| 20260504030003 | 35 | 221 | 0.9 | 2.6 | 0.00 | 0.00 | 0.00 | 83 | 1018.0 |
| 20260504025503 | 35 | 221 | 0.9 | 2.6 | 0.00 | 0.00 | 0.00 | 83 | 1017.9 |
| 20260504025003 | 35 | 220 | 2.6 | 2.6 | 0.00 | 0.00 | 0.00 | 84 | 1018.0 |
| 20260504024003 | 36 | 221 | 1.7 | 2.6 | 0.00 | 0.00 | 0.00 | 82 | 1018.0 |
| 20260504023504 | 36 | 0 | 0.0 | 1.7 | 0.00 | 0.00 | 0.00 | 83 | 1018.0 |
| 20260504023003 | 36 | 220 | 0.9 | 1.7 | 0.00 | 0.00 | 0.00 | 83 | 1018.0 |
| 20260504022002 | 36 | 0 | 0.0 | 0.9 | 0.00 | 0.00 | 0.00 | 81 | 1018.0 |
| 20260504021503 | 36 | 0 | 0.0 | 0.9 | 0.00 | 0.00 | 0.00 | 81 | 1017.9 |
| 20260504021003 | 36 | 0 | 0.0 | 1.7 | 0.00 | 0.00 | 0.00 | 81 | 1017.8 |
| 20260504020004 | 37 | 220 | 0.0 | 0.9 | 0.00 | 0.00 | 0.00 | 79 | 1017.7 |
| 20260504015003 | 38 | 0 | 0.0 | 2.6 | 0.00 | 0.00 | 0.00 | 78 | 1017.8 |
| 20260504014002 | 40 | 220 | 1.7 | 1.7 | 0.00 | 0.00 | 0.00 | 75 | 1017.7 |
| 20260504013503 | 40 | 0 | 0.0 | 1.7 | 0.00 | 0.00 | 0.00 | 74 | 1017.6 |
| 20260504013004 | 40 | 0 | 0.0 | 1.7 | 0.00 | 0.00 | 0.00 | 74 | 1017.6 |
| 20260504012503 | 40 | 221 | 0.0 | 0.9 | 0.00 | 0.00 | 0.00 | 73 | 1017.5 |
| 20260504012004 | 41 | 220 | 0.9 | 1.7 | 0.00 | 0.00 | 0.00 | 73 | 1017.4 |
| 20260504011503 | 41 | 220 | 0.0 | 1.7 | 0.00 | 0.00 | 0.00 | 73 | 1017.4 |
| 20260504011003 | 42 | 0 | 0.0 | 0.9 | 0.00 | 0.00 | 0.00 | 71 | 1017.4 |
| 20260504010503 | 42 | 0 | 0.0 | 0.0 | 0.00 | 0.00 | 0.00 | 70 | 1017.3 |
| 20260504010003 | 43 | 0 | 0.0 | 0.0 | 0.00 | 0.00 | 0.00 | 67 | 1017.3 |
| 20260504005503 | 44 | 0 | 0.0 | 0.0 | 0.00 | 0.00 | 0.00 | 66 | 1017.2 |
| 20260504004504 | 45 | 0 | 0.0 | 0.9 | 0.00 | 0.00 | 0.00 | 62 | 1017.2 |
| 20260504004003 | 46 | 0 | 0.0 | 0.0 | 0.00 | 0.00 | 0.00 | 61 | 1017.2 |
| 20260504003503 | 46 | 0 | 0.0 | 1.7 | 0.00 | 0.00 | 0.00 | 59 | 1017.1 |
| 20260504003003 | 47 | 220 | 0.0 | 1.7 | 0.00 | 0.00 | 0.00 | 58 | 1017.0 |
| 20260504002502 | 48 | 0 | 0.0 | 1.7 | 0.00 | 0.00 | 0.00 | 56 | 1017.0 |
| 20260504002003 | 50 | 221 | 0.9 | 2.6 | 0.00 | 0.00 | 0.00 | 54 | 1016.9 |
| 20260504001003 | 52 | 220 | 2.6 | 4.3 | 0.00 | 0.00 | 0.00 | 44 | 1017.0 |
| 20260504000005 | 54 | 221 | 0.9 | 2.6 | 0.00 | 0.00 | 0.00 | 40 | 1017.2 |
| 20260503235503 | 54 | 220 | 1.7 | 2.6 | 0.00 | 0.00 | 0.00 | 41 | 1017.1 |
| 20260503235003 | 55 | 221 | 0.9 | 5.2 | 0.00 | 0.00 | 0.00 | 35 | 1017.1 |
| 20260503234503 | 56 | 233 | 3.5 | 5.2 | 0.00 | 0.00 | 0.00 | 35 | 1017.0 |
| 20260503234003 | 56 | 262 | 0.9 | 4.3 | 0.00 | 0.00 | 0.00 | 35 | 1017.1 |
| 20260503233503 | 56 | 262 | 0.9 | 10.4 | 0.00 | 0.00 | 0.00 | 34 | 1017.0 |
| 20260503233004 | 56 | 262 | 3.5 | 10.4 | 0.00 | 0.00 | 0.00 | 33 | 1016.9 |
| 20260503232503 | 56 | 241 | 2.6 | 7.8 | 0.00 | 0.00 | 0.00 | 33 | 1017.0 |
| 20260503232002 | 57 | 273 | 2.6 | 7.8 | 0.00 | 0.00 | 0.00 | 33 | 1016.9 |
| 20260503231503 | 57 | 224 | 4.3 | 8.7 | 0.00 | 0.00 | 0.00 | 33 | 1016.8 |
| 20260503231003 | 57 | 213 | 5.2 | 8.7 | 0.00 | 0.00 | 0.00 | 32 | 1016.8 |
| 20260503230503 | 57 | 228 | 5.2 | 10.4 | 0.00 | 0.00 | 0.00 | 32 | 1016.7 |
| 20260503230004 | 57 | 267 | 7.0 | 10.4 | 0.00 | 0.00 | 0.00 | 32 | 1016.8 |
| 20260503225503 | 58 | 223 | 6.1 | 11.3 | 0.00 | 0.00 | 0.00 | 34 | 1016.8 |
| 20260503225003 | 57 | 270 | 5.2 | 11.3 | 0.00 | 0.00 | 0.00 | 32 | 1016.8 |
| 20260503224504 | 57 | 219 | 6.1 | 11.3 | 0.00 | 0.00 | 0.00 | 32 | 1016.8 |
| 20260503224002 | 58 | 210 | 6.1 | 12.2 | 0.00 | 0.00 | 0.00 | 31 | 1016.9 |
| 20260503223503 | 58 | 253 | 7.0 | 12.2 | 0.00 | 0.00 | 0.00 | 32 | 1017.0 |
| 20260503223003 | 58 | 280 | 5.2 | 10.4 | 0.00 | 0.00 | 0.00 | 31 | 1016.9 |
| 20260503222503 | 58 | 254 | 3.5 | 10.4 | 0.00 | 0.00 | 0.00 | 34 | 1017.0 |
| 20260503222003 | 57 | 271 | 2.6 | 12.2 | 0.00 | 0.00 | 0.00 | 31 | 1016.9 |
| 20260503221504 | 58 | 241 | 7.0 | 12.2 | 0.00 | 0.00 | 0.00 | 33 | 1017.1 |
| 20260503221003 | 58 | 307 | 3.5 | 12.2 | 0.00 | 0.00 | 0.00 | 34 | 1017.1 |
| 20260503220503 | 57 | 318 | 7.8 | 12.2 | 0.00 | 0.00 | 0.00 | 33 | 1017.1 |
| 20260503220004 | 58 | 256 | 6.1 | 12.2 | 0.00 | 0.00 | 0.00 | 36 | 1017.1 |
| 20260503214504 | 58 | 264 | 5.2 | 8.7 | 0.00 | 0.00 | 0.00 | 34 | 1017.1 |
| 20260503214003 | 58 | 275 | 5.2 | 12.2 | 0.00 | 0.00 | 0.00 | 35 | 1017.2 |
| 20260503213503 | 57 | 252 | 1.7 | 13.9 | 0.00 | 0.00 | 0.00 | 34 | 1017.3 |
| 20260503213003 | 57 | 273 | 10.4 | 13.9 | 0.00 | 0.00 | 0.00 | 36 | 1017.3 |
| 20260503212503 | 57 | 328 | 2.6 | 11.3 | 0.00 | 0.00 | 0.00 | 34 | 1017.2 |
| 20260503212003 | 57 | 247 | 6.1 | 13.0 | 0.00 | 0.00 | 0.00 | 35 | 1017.3 |
| 20260503211504 | 58 | 285 | 5.2 | 13.0 | 0.00 | 0.00 | 0.00 | 35 | 1017.3 |
| 20260503211003 | 57 | 269 | 5.2 | 13.0 | 0.00 | 0.00 | 0.00 | 36 | 1017.2 |
| 20260503210503 | 57 | 309 | 7.0 | 13.9 | 0.00 | 0.00 | 0.00 | 36 | 1017.2 |
| 20260503205003 | 57 | 308 | 9.6 | 13.0 | 0.00 | 0.00 | 0.00 | 37 | 1017.3 |
| 20260503204503 | 56 | 353 | 7.8 | 13.0 | 0.00 | 0.00 | 0.00 | 35 | 1017.4 |
| 20260503204003 | 56 | 259 | 8.7 | 13.9 | 0.00 | 0.00 | 0.00 | 37 | 1017.5 |
| 20260503203503 | 57 | 272 | 4.3 | 14.8 | 0.00 | 0.00 | 0.00 | 35 | 1017.6 |
| 20260503203003 | 57 | 249 | 9.6 | 14.8 | 0.00 | 0.00 | 0.00 | 35 | 1017.6 |
| 20260503202503 | 57 | 295 | 4.3 | 13.9 | 0.00 | 0.00 | 0.00 | 36 | 1017.6 |
| 20260503202003 | 56 | 298 | 5.2 | 14.8 | 0.00 | 0.00 | 0.00 | 40 | 1017.5 |
| 20260503201504 | 56 | 293 | 9.6 | 14.8 | 0.00 | 0.00 | 0.00 | 34 | 1017.7 |
| 20260503200503 | 56 | 337 | 5.2 | 15.6 | 0.00 | 0.00 | 0.00 | 37 | 1017.9 |
| 20260503195503 | 56 | 202 | 13.0 | 18.2 | 0.00 | 0.00 | 0.00 | 36 | 1018.0 |
| 20260503195003 | 55 | 312 | 7.0 | 17.4 | 0.00 | 0.00 | 0.00 | 38 | 1018.1 |
| 20260503194505 | 55 | 322 | 8.7 | 17.4 | 0.00 | 0.00 | 0.00 | 36 | 1018.3 |
| 20260503194004 | 55 | 273 | 4.3 | 15.6 | 0.00 | 0.00 | 0.00 | 38 | 1018.2 |
| 20260503193503 | 54 | 324 | 6.1 | 17.4 | 0.00 | 0.00 | 0.00 | 40 | 1018.2 |
| 20260503193004 | 54 | 329 | 8.7 | 17.4 | 0.00 | 0.00 | 0.00 | 37 | 1018.3 |
| 20260503192503 | 54 | 263 | 10.4 | 17.4 | 0.00 | 0.00 | 0.00 | 38 | 1018.2 |
| 20260503192002 | 54 | 266 | 6.1 | 20.9 | 0.00 | 0.00 | 0.00 | 36 | 1018.3 |
| 20260503191503 | 54 | 274 | 8.7 | 20.9 | 0.00 | 0.00 | 0.00 | 37 | 1018.5 |
| 20260503191003 | 54 | 348 | 4.3 | 14.8 | 0.00 | 0.00 | 0.00 | 36 | 1018.3 |
| 20260503190503 | 54 | 333 | 10.4 | 13.9 | 0.00 | 0.00 | 0.00 | 39 | 1018.4 |
| 20260503190004 | 53 | 233 | 2.6 | 13.0 | 0.00 | 0.00 | 0.00 | 43 | 1018.4 |
| 20260503184504 | 53 | 296 | 7.8 | 13.0 | 0.00 | 0.00 | 0.00 | 42 | 1018.7 |
| 20260503184003 | 52 | 316 | 10.4 | 15.6 | 0.00 | 0.00 | 0.00 | 44 | 1018.9 |
| 20260503183503 | 52 | 324 | 4.3 | 15.6 | 0.00 | 0.00 | 0.00 | 42 | 1019.1 |
| 20260503183003 | 52 | 300 | 8.7 | 13.9 | 0.00 | 0.00 | 0.00 | 43 | 1019.1 |
| 20260503182503 | 52 | 318 | 5.2 | 13.9 | 0.00 | 0.00 | 0.00 | 42 | 1019.0 |
| 20260503182005 | 52 | 301 | 4.3 | 17.4 | 0.00 | 0.00 | 0.00 | 43 | 1019.0 |
| 20260503181003 | 52 | 333 | 8.7 | 15.6 | 0.00 | 0.00 | 0.00 | 43 | 1019.2 |
| 20260503180503 | 52 | 271 | 8.7 | 15.6 | 0.00 | 0.00 | 0.00 | 46 | 1019.2 |
| 20260503180004 | 51 | 280 | 10.4 | 13.9 | 0.00 | 0.00 | 0.00 | 47 | 1019.2 |
| 20260503174504 | 51 | 274 | 7.8 | 19.1 | 0.00 | 0.00 | 0.00 | 49 | 1019.1 |
| 20260503174003 | 51 | 278 | 6.1 | 19.1 | 0.00 | 0.00 | 0.00 | 50 | 1019.2 |
| 20260503173503 | 50 | 272 | 6.1 | 13.0 | 0.00 | 0.00 | 0.00 | 49 | 1019.3 |
| 20260503172504 | 50 | 214 | 6.1 | 18.2 | 0.00 | 0.00 | 0.00 | 53 | 1019.3 |
| 20260503172003 | 50 | 250 | 12.2 | 18.2 | 0.00 | 0.00 | 0.00 | 48 | 1019.4 |
| 20260503171503 | 50 | 277 | 5.2 | 13.9 | 0.00 | 0.00 | 0.00 | 50 | 1019.5 |
| 20260503171003 | 50 | 262 | 9.6 | 13.9 | 0.00 | 0.00 | 0.00 | 52 | 1019.5 |
| 20260503170502 | 49 | 218 | 5.2 | 14.8 | 0.00 | 0.00 | 0.00 | 48 | 1019.6 |
| 20260503151003 | 45 | 301 | 4.3 | 11.3 | 0.00 | 0.00 | 0.00 | 55 | 1020.1 |
| 20260503131004 | 40 | 289 | 5.2 | 13.0 | 0.00 | 0.00 | 0.00 | 65 | 1019.8 |
| 20260503130503 | 40 | 354 | 7.0 | 13.9 | 0.00 | 0.00 | 0.00 | 63 | 1019.8 |
| 20260503110503 | 34 | 262 | 0.0 | 4.3 | 0.00 | 0.00 | 0.00 | 74 | 1018.4 |